Time,TemperatureF,DewpointF,PressureIn,WindDirection,WindDirectionDegrees,WindSpeedMPH,WindSpeedGustMPH,Humidity,HourlyPrecipIn,Conditions,Clouds,dailyrainin,SoftwareType,DateUTC
2013-02-03 00:03:00,39.0,30.0,30.10,North,349,2.0,2.0,69,0.00,,,0.04,,2013-02-03 05:03:00,
2013-02-03 00:11:00,39.0,30.0,30.10,North,349,2.0,2.0,69,0.00,,,0.04,,2013-02-03 05:11:00,
2013-02-03 00:22:00,38.0,29.0,30.12,WNW,302,1.0,5.0,71,0.00,,,0.04,,2013-02-03 05:22:00,
2013-02-03 00:32:00,38.0,30.0,30.11,NNE,13,1.0,3.0,72,0.00,,,0.04,,2013-02-03 05:32:00,
2013-02-03 00:41:00,38.0,30.0,30.11,NNE,13,1.0,3.0,72,0.00,,,0.04,,2013-02-03 05:41:00,
2013-02-03 00:52:00,37.0,29.0,30.11,NNE,12,3.0,6.0,73,0.00,,,0.04,,2013-02-03 05:52:00,
2013-02-03 01:02:00,37.0,29.0,30.12,NNW,348,1.0,2.0,73,0.00,,,0.04,,2013-02-03 06:02:00,
2013-02-03 01:11:00,37.0,29.0,30.12,NNW,348,1.0,2.0,73,0.00,,,0.04,,2013-02-03 06:11:00,
2013-02-03 01:21:00,37.0,29.0,30.12,SE,131,1.0,4.0,73,0.00,,,0.04,,2013-02-03 06:21:00,
2013-02-03 01:32:00,37.0,29.0,30.12,West,281,1.0,3.0,74,0.00,,,0.04,,2013-02-03 06:32:00,
2013-02-03 01:41:00,37.0,29.0,30.12,West,281,1.0,3.0,74,0.00,,,0.04,,2013-02-03 06:41:00,
2013-02-03 01:52:00,37.0,29.0,30.12,WSW,253,2.0,11.0,72,0.00,,,0.04,,2013-02-03 06:52:00,
2013-02-03 02:01:00,37.0,28.0,30.16,North,349,4.0,13.0,71,0.00,,,0.04,,2013-02-03 07:01:00,
2013-02-03 02:11:00,37.0,28.0,30.16,North,349,4.0,13.0,71,0.00,,,0.04,,2013-02-03 07:11:00,
2013-02-03 02:21:00,37.0,28.0,30.11,West,277,2.0,11.0,71,0.00,,,0.04,,2013-02-03 07:21:00,
2013-02-03 02:31:00,37.0,28.0,30.12,NW,317,7.0,11.0,70,0.00,,,0.04,,2013-02-03 07:31:00,
2013-02-03 02:41:00,37.0,28.0,30.12,NW,317,7.0,11.0,70,0.00,,,0.04,,2013-02-03 07:41:00,
2013-02-03 02:52:00,36.0,27.0,30.12,NW,306,5.0,12.0,70,0.00,,,0.04,,2013-02-03 07:52:00,
2013-02-03 03:01:00,36.0,27.0,30.12,NW,306,5.0,12.0,70,0.00,,,0.04,,2013-02-03 08:01:00,
2013-02-03 03:11:00,36.0,27.0,30.12,NW,306,5.0,12.0,70,0.00,,,0.04,,2013-02-03 08:11:00,
2013-02-03 03:22:00,36.0,27.0,30.13,WNW,300,7.0,22.0,70,0.00,,,0.04,,2013-02-03 08:22:00,
2013-02-03 03:32:00,36.0,27.0,30.13,WNW,303,17.0,17.0,69,0.00,,,0.04,,2013-02-03 08:32:00,
2013-02-03 03:42:00,36.0,27.0,30.13,WNW,303,17.0,17.0,69,0.00,,,0.04,,2013-02-03 08:42:00,
2013-02-03 03:52:00,36.0,26.0,30.13,NW,304,10.0,18.0,68,0.00,,,0.04,,2013-02-03 08:52:00,
2013-02-03 04:02:00,36.0,26.0,30.14,WNW,296,10.0,14.0,68,0.00,,,0.04,,2013-02-03 09:02:00,
2013-02-03 04:11:00,36.0,26.0,30.14,WNW,296,10.0,14.0,68,0.00,,,0.04,,2013-02-03 09:11:00,
2013-02-03 04:21:00,36.0,26.0,30.15,NW,319,13.0,21.0,67,0.00,,,0.04,,2013-02-03 09:21:00,
2013-02-03 04:31:00,36.0,26.0,30.16,WNW,301,9.0,14.0,67,0.00,,,0.04,,2013-02-03 09:31:00,
2013-02-03 04:41:00,36.0,26.0,30.16,WNW,301,9.0,14.0,67,0.00,,,0.04,,2013-02-03 09:41:00,
2013-02-03 04:52:00,35.0,25.0,30.15,WNW,298,5.0,18.0,67,0.00,,,0.04,,2013-02-03 09:52:00,
2013-02-03 05:01:00,35.0,25.0,30.16,WNW,290,5.0,15.0,67,0.00,,,0.04,,2013-02-03 10:01:00,
2013-02-03 05:11:00,34.0,24.0,30.16,SSE,156,3.0,15.0,66,0.00,,,0.04,,2013-02-03 10:11:00,
2013-02-03 05:21:00,34.0,24.0,30.16,SSE,156,3.0,15.0,66,0.00,,,0.04,,2013-02-03 10:21:00,
2013-02-03 05:31:00,34.0,24.0,30.16,West,276,11.0,11.0,66,0.00,,,0.04,,2013-02-03 10:31:00,
2013-02-03 05:42:00,34.0,24.0,30.16,West,276,11.0,11.0,66,0.00,,,0.04,,2013-02-03 10:42:00,
2013-02-03 05:52:00,34.0,24.0,30.15,NW,314,4.0,14.0,66,0.00,,,0.04,,2013-02-03 10:52:00,
2013-02-03 06:02:00,33.0,23.0,30.17,NW,317,6.0,12.0,66,0.00,,,0.04,,2013-02-03 11:02:00,
2013-02-03 06:11:00,33.0,23.0,30.17,NW,317,6.0,12.0,66,0.00,,,0.04,,2013-02-03 11:11:00,
2013-02-03 06:22:00,32.0,22.0,30.18,NNW,333,6.0,7.0,67,0.00,,,0.04,,2013-02-03 11:22:00,
2013-02-03 06:32:00,32.0,23.0,30.17,NNE,12,3.0,11.0,68,0.00,,,0.04,,2013-02-03 11:32:00,
2013-02-03 06:41:00,32.0,23.0,30.17,NNE,12,3.0,11.0,68,0.00,,,0.04,,2013-02-03 11:41:00,
2013-02-03 06:52:00,32.0,22.0,30.19,NW,312,5.0,10.0,67,0.00,,,0.04,,2013-02-03 11:52:00,
2013-02-03 07:02:00,32.0,22.0,30.17,West,271,6.0,22.0,65,0.00,,,0.04,,2013-02-03 12:02:00,
2013-02-03 07:11:00,32.0,22.0,30.17,West,271,6.0,22.0,65,0.00,,,0.04,,2013-02-03 12:11:00,
2013-02-03 07:22:00,31.0,21.0,30.18,West,272,6.0,16.0,66,0.00,,,0.04,,2013-02-03 12:22:00,
2013-02-03 07:32:00,31.0,20.0,30.17,WNW,299,6.0,12.0,64,0.00,,,0.04,,2013-02-03 12:32:00,
2013-02-03 07:42:00,31.0,20.0,30.17,WNW,299,6.0,12.0,64,0.00,,,0.04,,2013-02-03 12:42:00,
2013-02-03 07:53:00,31.0,20.0,30.19,NW,324,7.0,14.0,63,0.00,,,0.04,,2013-02-03 12:53:00,
2013-02-03 08:03:00,31.0,18.0,30.20,NW,318,16.0,17.0,59,0.00,,,0.04,,2013-02-03 13:03:00,
2013-02-03 08:11:00,31.0,18.0,30.22,NW,315,13.0,16.0,57,0.00,,,0.04,,2013-02-03 13:11:00,
2013-02-03 08:21:00,31.0,18.0,30.22,NW,315,13.0,16.0,57,0.00,,,0.04,,2013-02-03 13:21:00,
2013-02-03 08:32:00,30.0,17.0,30.21,NW,326,7.0,13.0,57,0.00,,,0.04,,2013-02-03 13:32:00,
2013-02-03 08:42:00,30.0,17.0,30.21,NW,326,7.0,13.0,57,0.00,,,0.04,,2013-02-03 13:42:00,
2013-02-03 08:52:00,30.0,16.0,30.21,NNW,333,9.0,15.0,56,0.00,,,0.04,,2013-02-03 13:52:00,
2013-02-03 09:02:00,32.0,17.0,30.23,NW,325,6.0,18.0,54,0.00,,,0.04,,2013-02-03 14:02:00,
2013-02-03 09:11:00,32.0,17.0,30.23,NW,325,6.0,18.0,54,0.00,,,0.04,,2013-02-03 14:11:00,
2013-02-03 09:21:00,33.0,17.0,30.24,WNW,301,8.0,11.0,51,0.00,,,0.04,,2013-02-03 14:21:00,
2013-02-03 09:32:00,34.0,17.0,30.24,NW,311,4.0,9.0,49,0.00,,,0.04,,2013-02-03 14:32:00,
2013-02-03 09:42:00,34.0,17.0,30.24,NW,311,4.0,9.0,49,0.00,,,0.04,,2013-02-03 14:42:00,
2013-02-03 09:52:00,36.0,17.0,30.26,NW,321,5.0,12.0,46,0.00,,,0.04,,2013-02-03 14:52:00,
2013-02-03 10:03:00,36.0,17.0,30.27,NNW,329,9.0,14.0,45,0.00,,,0.04,,2013-02-03 15:03:00,
2013-02-03 10:11:00,37.0,17.0,30.25,NNW,331,5.0,13.0,43,0.00,,,0.04,,2013-02-03 15:11:00,
2013-02-03 10:22:00,37.0,17.0,30.25,NNW,331,5.0,13.0,43,0.00,,,0.04,,2013-02-03 15:22:00,
2013-02-03 10:32:00,37.0,16.0,30.27,NW,322,7.0,9.0,41,0.00,,,0.04,,2013-02-03 15:32:00,
2013-02-03 10:41:00,37.0,16.0,30.27,NW,322,7.0,9.0,41,0.00,,,0.04,,2013-02-03 15:41:00,
2013-02-03 10:52:00,38.0,16.0,30.25,NNW,341,1.0,6.0,41,0.00,,,0.04,,2013-02-03 15:52:00,
2013-02-03 11:02:00,39.0,16.0,30.25,NNW,331,7.0,9.0,39,0.00,,,0.03,,2013-02-03 16:02:00,
2013-02-03 11:22:00,40.0,15.0,30.27,North,355,3.0,6.0,36,0.00,,,0.03,,2013-02-03 16:22:00,
2013-02-03 11:32:00,39.0,14.0,30.24,NNW,327,2.0,5.0,35,0.00,,,0.03,,2013-02-03 16:32:00,
2013-02-03 11:41:00,39.0,14.0,30.24,NNW,327,2.0,5.0,35,0.00,,,0.03,,2013-02-03 16:41:00,
2013-02-03 11:52:00,40.0,16.0,30.24,WNW,289,3.0,6.0,38,0.00,,,0.03,,2013-02-03 16:52:00,
2013-02-03 12:02:00,39.0,16.0,30.24,NW,306,2.0,3.0,39,0.00,,,0.02,,2013-02-03 17:02:00,
2013-02-03 12:11:00,39.0,16.0,30.24,NW,306,2.0,3.0,39,0.00,,,0.02,,2013-02-03 17:11:00,
2013-02-03 12:21:00,39.0,16.0,30.23,NNW,345,1.0,4.0,38,0.00,,,0.02,,2013-02-03 17:21:00,
2013-02-03 12:32:00,41.0,15.0,30.23,NNW,344,3.0,4.0,35,0.00,,,0.02,,2013-02-03 17:32:00,
2013-02-03 12:42:00,41.0,15.0,30.23,NNW,344,3.0,4.0,35,0.00,,,0.02,,2013-02-03 17:42:00,
2013-02-03 12:52:00,41.0,17.0,30.22,NW,317,2.0,4.0,37,0.00,,,0.02,,2013-02-03 17:52:00,
2013-02-03 13:03:00,42.0,16.0,30.22,SE,127,2.0,5.0,35,0.00,,,0.01,,2013-02-03 18:03:00,
2013-02-03 13:11:00,42.0,16.0,30.22,SE,127,2.0,5.0,35,0.00,,,0.01,,2013-02-03 18:11:00,
2013-02-03 13:23:00,42.0,16.0,30.20,ESE,123,3.0,5.0,35,0.00,,,0.01,,2013-02-03 18:23:00,
2013-02-03 13:32:00,41.0,14.0,30.21,SE,137,7.0,9.0,33,0.00,,,0.01,,2013-02-03 18:32:00,
2013-02-03 13:42:00,41.0,14.0,30.21,SE,137,7.0,9.0,33,0.00,,,0.01,,2013-02-03 18:42:00,
2013-02-03 13:52:00,41.0,14.0,30.16,SE,124,7.0,7.0,33,0.00,,,0.01,,2013-02-03 18:52:00,
2013-02-03 14:02:00,42.0,16.0,30.17,South,179,6.0,7.0,35,0.00,,,0.01,,2013-02-03 19:02:00,
2013-02-03 14:11:00,42.0,16.0,30.17,South,179,6.0,7.0,35,0.00,,,0.01,,2013-02-03 19:11:00,
2013-02-03 14:22:00,41.0,14.0,30.16,SSE,156,7.0,8.0,33,0.00,,,0.01,,2013-02-03 19:22:00,
2013-02-03 14:32:00,41.0,15.0,30.14,SE,140,6.0,6.0,34,0.00,,,0.01,,2013-02-03 19:32:00,
2013-02-03 14:41:00,41.0,15.0,30.14,SE,140,6.0,6.0,34,0.00,,,0.01,,2013-02-03 19:41:00,
2013-02-03 14:52:00,41.0,15.0,30.12,SSE,161,3.0,10.0,34,0.00,,,0.01,,2013-02-03 19:52:00,
2013-02-03 15:01:00,42.0,16.0,30.13,South,179,6.0,10.0,35,0.00,,,0.01,,2013-02-03 20:01:00,
2013-02-03 15:12:00,42.0,16.0,30.13,South,179,6.0,10.0,35,0.00,,,0.01,,2013-02-03 20:12:00,
2013-02-03 15:21:00,43.0,16.0,30.11,SSE,166,7.0,10.0,33,0.00,,,0.01,,2013-02-03 20:21:00,
2013-02-03 15:32:00,44.0,17.0,30.10,South,187,2.0,10.0,33,0.00,,,0.01,,2013-02-03 20:32:00,
2013-02-03 15:42:00,44.0,17.0,30.10,South,187,2.0,10.0,33,0.00,,,0.01,,2013-02-03 20:42:00,
2013-02-03 15:52:00,44.0,17.0,30.08,SSW,213,8.0,11.0,33,0.00,,,0.01,,2013-02-03 20:52:00,
2013-02-03 16:03:00,44.0,17.0,30.09,SSW,195,6.0,8.0,33,0.00,,,0.00,,2013-02-03 21:03:00,
2013-02-03 16:11:00,44.0,17.0,30.09,SSW,195,6.0,8.0,33,0.00,,,0.00,,2013-02-03 21:11:00,
2013-02-03 16:21:00,44.0,17.0,30.07,SW,218,6.0,10.0,33,0.00,,,0.00,,2013-02-03 21:21:00,
2013-02-03 16:32:00,44.0,16.0,30.07,South,190,5.0,11.0,32,0.00,,,0.00,,2013-02-03 21:32:00,
2013-02-03 16:42:00,44.0,16.0,30.07,South,190,5.0,11.0,32,0.00,,,0.00,,2013-02-03 21:42:00,
2013-02-03 16:52:00,44.0,17.0,30.06,South,186,5.0,9.0,33,0.00,,,0.00,,2013-02-03 21:52:00,
2013-02-03 17:01:00,44.0,17.0,30.05,South,186,9.0,9.0,33,0.00,,,0.00,,2013-02-03 22:01:00,
2013-02-03 17:11:00,44.0,17.0,30.05,South,186,9.0,9.0,33,0.00,,,0.00,,2013-02-03 22:11:00,
2013-02-03 17:21:00,44.0,17.0,30.05,South,184,7.0,9.0,34,0.00,,,0.00,,2013-02-03 22:21:00,
2013-02-03 17:32:00,44.0,17.0,30.03,South,185,4.0,5.0,33,0.00,,,0.00,,2013-02-03 22:32:00,
2013-02-03 17:41:00,44.0,17.0,30.03,South,185,4.0,5.0,33,0.00,,,0.00,,2013-02-03 22:41:00,
2013-02-03 17:52:00,44.0,18.0,30.03,SSW,202,5.0,6.0,35,0.00,,,0.00,,2013-02-03 22:52:00,
2013-02-03 18:01:00,44.0,19.0,30.01,SSW,202,3.0,6.0,36,0.00,,,0.00,,2013-02-03 23:01:00,
2013-02-03 18:12:00,44.0,19.0,30.01,SSW,202,3.0,6.0,36,0.00,,,0.00,,2013-02-03 23:12:00,
2013-02-03 18:22:00,44.0,19.0,30.00,South,187,3.0,8.0,36,0.00,,,0.00,,2013-02-03 23:22:00,
2013-02-03 18:32:00,43.0,19.0,30.01,South,178,4.0,6.0,38,0.00,,,0.00,,2013-02-03 23:32:00,
2013-02-03 18:41:00,43.0,19.0,30.01,South,178,4.0,6.0,38,0.00,,,0.00,,2013-02-03 23:41:00,
2013-02-03 18:52:00,42.0,19.0,30.01,South,183,2.0,3.0,40,0.00,,,0.00,,2013-02-03 23:52:00,
2013-02-03 19:01:00,41.0,19.0,29.99,South,183,3.0,3.0,40,0.00,,,0.00,,2013-02-04 00:01:00,
2013-02-03 19:11:00,41.0,19.0,29.99,South,183,3.0,3.0,40,0.00,,,0.00,,2013-02-04 00:11:00,
2013-02-03 19:22:00,41.0,19.0,30.00,South,183,2.0,3.0,41,0.00,,,0.00,,2013-02-04 00:22:00,
2013-02-03 19:31:00,40.0,19.0,29.98,South,174,4.0,5.0,43,0.00,,,0.00,,2013-02-04 00:31:00,
2013-02-03 19:41:00,40.0,19.0,29.98,South,174,4.0,5.0,43,0.00,,,0.00,,2013-02-04 00:41:00,
2013-02-03 19:52:00,40.0,20.0,29.98,South,185,4.0,5.0,44,0.00,,,0.00,,2013-02-04 00:52:00,
2013-02-03 20:01:00,39.0,19.0,29.97,SSE,168,2.0,4.0,45,0.00,,,0.00,,2013-02-04 01:01:00,
2013-02-03 20:11:00,39.0,20.0,29.97,SSE,163,3.0,4.0,46,0.00,,,0.00,,2013-02-04 01:11:00,
2013-02-03 20:21:00,39.0,20.0,29.97,SSE,163,3.0,4.0,46,0.00,,,0.00,,2013-02-04 01:21:00,
2013-02-03 20:31:00,39.0,21.0,29.96,SSE,166,3.0,5.0,48,0.00,,,0.00,,2013-02-04 01:31:00,
2013-02-03 20:41:00,39.0,21.0,29.96,SSE,166,3.0,5.0,48,0.00,,,0.00,,2013-02-04 01:41:00,
2013-02-03 20:52:00,39.0,21.0,29.97,SSE,168,4.0,4.0,49,0.00,,,0.00,,2013-02-04 01:52:00,
2013-02-03 21:02:00,38.0,21.0,29.97,SSE,166,2.0,4.0,50,0.00,,,0.00,,2013-02-04 02:02:00,
2013-02-03 21:11:00,38.0,21.0,29.97,SSE,166,2.0,4.0,50,0.00,,,0.00,,2013-02-04 02:11:00,
2013-02-03 21:21:00,38.0,22.0,29.95,SSE,164,3.0,4.0,51,0.00,,,0.00,,2013-02-04 02:21:00,
2013-02-03 21:31:00,38.0,22.0,29.96,SSE,164,4.0,4.0,51,0.00,,,0.00,,2013-02-04 02:31:00,
2013-02-03 21:41:00,38.0,22.0,29.96,SSE,164,4.0,4.0,51,0.00,,,0.00,,2013-02-04 02:41:00,
2013-02-03 21:52:00,38.0,22.0,29.95,SSE,164,3.0,4.0,52,0.00,,,0.00,,2013-02-04 02:52:00,
2013-02-03 22:02:00,38.0,22.0,29.89,SSE,158,3.0,6.0,53,0.00,,,0.00,,2013-02-04 03:02:00,
2013-02-03 22:11:00,38.0,23.0,29.94,SSE,150,3.0,5.0,54,0.00,,,0.00,,2013-02-04 03:11:00,
2013-02-03 22:21:00,38.0,23.0,29.94,SSE,150,3.0,5.0,54,0.00,,,0.00,,2013-02-04 03:21:00,
2013-02-03 22:32:00,38.0,23.0,29.93,SSE,154,5.0,6.0,54,0.00,,,0.00,,2013-02-04 03:32:00,
2013-02-03 22:41:00,38.0,23.0,29.93,SSE,154,5.0,6.0,54,0.00,,,0.00,,2013-02-04 03:41:00,
2013-02-03 22:52:00,38.0,23.0,29.93,SSE,158,4.0,5.0,55,0.00,,,0.00,,2013-02-04 03:52:00,
2013-02-03 23:01:00,38.0,23.0,29.92,SSE,167,2.0,5.0,55,0.00,,,0.00,,2013-02-04 04:01:00,
2013-02-03 23:11:00,38.0,23.0,29.92,SSE,167,2.0,5.0,55,0.00,,,0.00,,2013-02-04 04:11:00,
2013-02-03 23:21:00,38.0,23.0,29.91,SSE,159,2.0,6.0,55,0.00,,,0.00,,2013-02-04 04:21:00,
2013-02-03 23:31:00,38.0,23.0,29.90,South,169,3.0,4.0,55,0.00,,,0.00,,2013-02-04 04:31:00,
2013-02-03 23:41:00,38.0,23.0,29.90,South,169,3.0,4.0,55,0.00,,,0.00,,2013-02-04 04:41:00,
2013-02-03 23:52:00,38.0,24.0,29.89,SSE,166,2.0,4.0,56,0.00,,,0.00,,2013-02-04 04:52:00,